This is the latest recevied weather packets stored in our database for station/object K1KOF. If no packets are shown the sender has not sent any weather packets the latest 10 day(s).
| Time | Temp. | Humidity | Pressure | Rain* | Wind** | Luminosity | Snow |
|---|---|---|---|---|---|---|---|
| 1777468009 | 17.78° C | 98% | 1025 hPa | 0 mm | - | 50 W/m² | - |
| 1777467705 | 17.78° C | 98% | 1024.9 hPa | 0 mm | - | 81 W/m² | - |
| 1777467400 | 17.78° C | 98% | 1024.7 hPa | 0 mm | - | 82 W/m² | - |
| 1777467096 | 17.78° C | 99% | 1024.7 hPa | 0 mm | - | 57 W/m² | - |
| 1777466187 | 17.78° C | 99% | 1024.8 hPa | 0 mm | - | 93 W/m² | - |
| 1777465580 | 17.22° C | 99% | 1024.5 hPa | 0 mm | - | 53 W/m² | - |
| 1777462534 | 17.22° C | 99% | 1024.7 hPa | 0 mm | - | 9 W/m² | - |
| 1777462230 | 16.67° C | 99% | 1024.6 hPa | 0 mm | - | 6 W/m² | - |
| 1777461927 | 16.67° C | 99% | 1024.8 hPa | 0 mm | - | 5 W/m² | - |
| 1777461624 | 16.67° C | 99% | 1024.8 hPa | 0 mm | - | 5 W/m² | - |
| 1777461319 | 16.67° C | 99% | 1024.8 hPa | 0 mm | - | 4 W/m² | - |
| 1777459800 | 16.11° C | 99% | 1025.4 hPa | 0 mm | - | 0 W/m² | - |
| 1777459195 | 16.11° C | 99% | 1025.5 hPa | 0 mm | - | 0 W/m² | - |
| 1777458892 | 16.11° C | 99% | 1025.4 hPa | 0 mm | - | 0 W/m² | - |
| 1777458588 | 16.11° C | 99% | 1025.6 hPa | 0 mm | - | 0 W/m² | - |
| 1777458285 | 16.11° C | 99% | 1025.5 hPa | 0 mm | - | 0 W/m² | - |
| 1777457980 | 16.11° C | 99% | 1025.5 hPa | 0 mm | - | 0 W/m² | - |
| 1777457677 | 16.11° C | 99% | 1025.6 hPa | 0 mm | - | 0 W/m² | - |
| 1777457376 | 15.56° C | 99% | 1025.6 hPa | 0 mm | - | 0 W/m² | - |
| 1777457072 | 15.56° C | 99% | 1025.8 hPa | 0 mm | - | 0 W/m² | - |
| 1777456768 | 15.56° C | 99% | 1025.8 hPa | 0 mm | - | 0 W/m² | - |
| 1777456468 | 15.56° C | 99% | 1025.7 hPa | 0 mm | - | 0 W/m² | - |
| 1777455557 | 15.56° C | 99% | 1025.6 hPa | 0 mm | - | 0 W/m² | - |
| 1777455254 | 15.56° C | 99% | 1025.7 hPa | 0 mm | - | 0 W/m² | - |
| 1777454950 | 15.56° C | 99% | 1025.6 hPa | 0 mm | - | 0 W/m² | - |
* Rain latest hour (hover to see other rain measurements)
** Current wind speed in m/s (hover to see current wind gust speed)